Rechercher aéroport 
image banner adimage banner ad
image banner ad

DAOO - Oran/Ahmed Benbella

Situé à Oran, Algeria

ICAO - DAOO, IATA - ORN

Données fournies par Airmate  

Information générale

Coordonnées: N35°37'38" W0°36'41"
Élévation : 298 feet MSL.
 
Évalué:
Voir évaluations:
[VIEW]
Voir autres Aéroports à Oran Province

Données opérationnelles

Accessible au public
Heure actuelle UTC:
Heure actuelle locale:
Météo
METAR: DAOO 040800Z 23010KT 9999 -RA BKN026 12/09 Q1005
TAF: TAF DAOO 040500Z 0406/0506 22024G43KT 9999 SCT026 BECMG 0409/0412 22018KT TEMPO 0416/0421 6000 TSSHRA FEW023CB BKN026 OVC100 BECMG 0422/0424 23024G41KT 9999 FEW026 SCT100 TEMPO 0501/0506 8000 RA SCT026 SCT100 BKN233
Voir NOTAMs / SUP AIP / TFR affectant cet aéroport [VIEW]
Fréquences de communication: [VIEW]

Pistes:

Identifiant RWYQFULongueur (ft)Largeur (ft)SurfaceLDA (ft)
07R67°9843148
25L247°9843148
07L67°11811148
25R247°11811148

Coordonnées de l'aéroport

Adresse: Oran Algeria

Vue satellite de DAOO